EW6655 Weather Reports


time (UTC)temp
C
wind
direction
speed
KPH
gust
KPH
rain 1hr
cm
rain 24hr
cm
rain mn
cm
humidity
%
barometer
mb
20260510083019 13 18 8.0 16.1 0.00 0.00 0.00 74 1012.4
20260510081531 12 101 1.6 17.7 0.00 0.00 0.00 77 1012.5
20260510080013 12 26 8.0 14.5 0.00 0.00 0.00 77 1012.5
20260510074511 12 36 8.0 14.5 0.00 0.00 0.00 78 1012.6
20260510073016 12 44 9.7 17.7 0.00 0.00 0.00 78 1012.7
20260510071512 11 28 4.8 17.7 0.00 0.00 0.00 79 1012.7
20260510070011 11 57 8.0 16.1 0.00 0.00 0.00 78 1012.6
20260510064523 11 44 3.2 9.7 0.00 0.00 0.00 79 1012.5
20260510063014 11 11 3.2 6.4 0.00 0.00 0.00 79 1012.4
20260510061505 11 32 3.2 6.4 0.00 0.00 0.00 79 1012.3
20260510060004 11 19 1.6 6.4 0.00 0.00 0.00 80 1012.3
20260510054502 11 14 3.2 9.7 0.00 0.00 0.00 80 1012.3
20260510053100 10 24 1.6 6.4 0.00 0.00 0.00 82 1012.4
20260510051608 10 65 1.6 4.8 0.00 0.00 0.00 83 1012.5
20260510044608 8 65 1.6 4.8 0.00 0.00 0.00 90 1012.6
20260510043055 7 65 0.0 0.0 0.00 0.00 0.00 91 1012.7
20260510041606 7 65 0.0 3.2 0.00 0.00 0.00 90 1012.8
20260510040053 7 65 0.0 0.0 0.00 0.00 0.00 89 1012.8
20260510034558 7 65 0.0 0.0 0.00 0.00 0.00 89 1012.9
20260510033050 7 65 0.0 0.0 0.00 0.00 0.00 89 1013.0
20260510031556 7 65 0.0 1.6 0.00 0.00 0.00 88 1013.1
20260510030055 7 65 0.0 0.0 0.00 0.00 0.00 87 1013.2
20260510024645 7 65 0.0 3.2 0.00 0.00 0.00 87 1013.3
20260510023044 7 65 0.0 0.0 0.00 0.00 0.00 86 1013.3
20260510021542 7 65 0.0 0.0 0.00 0.00 0.00 86 1013.4
20260510020039 7 65 0.0 0.0 0.00 0.00 0.00 84 1013.5
20260510014539 8 65 0.0 0.0 0.00 0.00 0.00 83 1013.6
20260510013042 8 65 0.0 0.0 0.00 0.00 0.00 83 1013.7
20260510011536 8 65 0.0 0.0 0.00 0.00 0.00 82 1013.7
20260510010034 8 65 0.0 0.0 0.00 0.00 0.00 81 1013.8
20260510004532 8 65 0.0 1.6 0.00 0.00 0.00 80 1013.8
20260510003044 8 65 0.0 0.0 0.00 0.00 0.00 78 1014.1
20260510001526 9 65 0.0 0.0 0.00 0.00 0.00 76 1014.1
20260510000026 10 65 0.0 0.0 0.00 0.00 0.00 74 1014.4
20260509234533 10 65 0.0 3.2 0.00 0.00 0.00 73 1014.6
20260509233033 10 64 1.6 6.4 0.00 0.00 0.00 72 1014.5
20260509231519 10 71 1.6 6.4 0.00 0.00 0.00 72 1014.6
20260509230018 10 61 1.6 4.8 0.00 0.00 0.00 73 1014.8
20260509224516 10 51 1.6 4.8 0.00 0.00 0.00 72 1015.0
20260509223016 11 46 0.0 3.2 0.00 0.00 0.00 72 1015.1
20260509221511 11 46 0.0 4.8 0.00 0.00 0.00 72 1015.1
20260509220016 11 44 3.2 6.4 0.00 0.00 0.00 72 1015.1
20260509214508 11 55 1.6 4.8 0.00 0.00 0.00 71 1015.2
20260509213008 11 53 0.0 8.0 0.00 0.00 0.00 71 1015.2
20260509211507 11 52 0.0 4.8 0.00 0.00 0.00 70 1015.5
20260509210005 11 59 1.6 4.8 0.00 0.00 0.00 70 1015.5
20260509204508 12 97 1.6 6.4 0.00 0.00 0.00 69 1015.4
20260509203006 12 72 1.6 6.4 0.00 0.00 0.00 69 1015.4
20260509201505 12 32 3.2 6.4 0.00 0.00 0.00 69 1015.4
20260509200003 12 42 3.2 6.4 0.00 0.00 0.00 69 1015.4
20260509194506 12 17 1.6 4.8 0.00 0.00 0.00 68 1015.4
20260509193002 13 28 1.6 4.8 0.00 0.00 0.00 66 1015.3
20260509191503 13 38 1.6 8.0 0.00 0.00 0.00 64 1015.2
20260509190001 13 35 4.8 9.7 0.00 0.00 0.00 63 1015.1
20260509184505 15 55 3.2 8.0 0.00 0.00 0.00 60 1015.1
20260509183001 15 69 4.8 9.7 0.00 0.00 0.00 60 1015.1
20260509181608 15 43 3.2 9.7 0.00 0.00 0.00 59 1014.9
20260509180105 15 70 3.2 9.7 0.00 0.00 0.00 59 1014.9
20260509174559 16 51 4.8 16.1 0.00 0.00 0.00 57 1014.8
20260509173102 16 18 6.4 16.1 0.00 0.00 0.00 57 1014.7
20260509171558 16 34 8.0 16.1 0.00 0.00 0.00 56 1014.4
20260509170104 16 30 6.4 16.1 0.00 0.00 0.00 57 1014.6
20260509164556 16 21 6.4 19.3 0.00 0.00 0.00 56 1014.5
20260509163104 16 27 9.7 16.1 0.00 0.00 0.00 56 1014.7
20260509161556 16 54 6.4 17.7 0.00 0.00 0.00 56 1014.8
20260509160051 16 20 6.4 17.7 0.00 0.00 0.00 55 1014.9
20260509154555 16 74 8.0 17.7 0.00 0.00 0.00 56 1015.1
20260509153046 17 18 6.4 16.1 0.00 0.00 0.00 54 1015.1
20260509151547 17 21 6.4 17.7 0.00 0.00 0.00 57 1015.2
20260509150045 17 31 4.8 16.1 0.00 0.00 0.00 55 1015.2
20260509144539 17 13 4.8 14.5 0.00 0.00 0.00 55 1015.2
20260509143046 17 117 4.8 14.5 0.00 0.00 0.00 53 1015.4
20260509141536 17 82 6.4 16.1 0.00 0.00 0.00 54 1015.6
20260509140034 17 74 4.8 14.5 0.00 0.00 0.00 54 1015.7
20260509134533 16 12 4.8 12.9 0.00 0.00 0.00 56 1016.0
20260509133031 16 36 3.2 9.7 0.00 0.00 0.00 56 1016.1
20260509131529 16 115 3.2 8.0 0.00 0.00 0.00 55 1016.3
20260509130029 17 92 4.8 14.5 0.00 0.00 0.00 52 1016.4
20260509124535 17 65 3.2 17.7 0.00 0.00 0.00 56 1016.5
20260509123023 17 97 6.4 14.5 0.00 0.00 0.00 55 1016.5
20260509121534 16 9 4.8 16.1 0.00 0.00 0.00 56 1016.6
20260509120021 16 65 4.8 16.1 0.00 0.00 0.00 59 1016.8
20260509114540 15 25 8.0 16.1 0.00 0.00 0.00 58 1017.0
20260509113019 16 15 6.4 16.1 0.00 0.00 0.00 58 1017.1
20260509111517 17 38 3.2 9.7 0.00 0.00 0.00 54 1017.3
20260509110016 16 95 6.4 12.9 0.00 0.00 0.00 57 1017.4
20260509104515 16 90 6.4 14.5 0.00 0.00 0.00 56 1017.5
20260509103009 15 31 4.8 9.7 0.00 0.00 0.00 55 1017.7
20260509101510 15 43 4.8 14.5 0.00 0.00 0.00 56 1017.7
20260509100007 15 37 4.8 14.5 0.00 0.00 0.00 58 1017.8
20260509094506 15 75 6.4 14.5 0.00 0.00 0.00 55 1017.8
20260509093006 15 326 1.6 9.7 0.00 0.00 0.00 56 1017.8
20260509091506 15 28 4.8 12.9 0.00 0.00 0.00 50 1017.9
20260509090006 15 188 1.6 8.0 0.00 0.00 0.00 56 1017.9
20260509084605 15 88 4.8 11.3 0.00 0.00 0.00 58 1017.9